Volver al catálogo

STARLINK-31507

ActivoComunicacionesVLEO
NORAD 59401·PAYLOAD·🇺🇸 United States

Lanzado Apr 5, 2024 desde Cape Canaveral Space Force Station

Loading…

Próximos Pases (próximas 24 horas)

TLE

ActualizadoSource: CelesTrak SupGP

Época: Sep 14, 2026, 21:16 UTC

1 59401C 24064D   26257.88659722  .00055098  00000+0  19964-2 0  2578
2 59401  43.0001  67.5520 0001387 270.0939  50.5715 15.27539013    13

Sigue STARLINK-31507 en tiempo real con AllMySat

Download on the App Store